TimeMST,TemperatureF,Dew PointF,Humidity,Sea Level PressureIn,VisibilityMPH,Wind Direction,Wind SpeedMPH,Gust SpeedMPH,PrecipitationIn,Events,Conditions,WindDirDegrees,DateUTC
12:21 AM,12.2,10.4,92,30.12,10.0,Calm,Calm,-,N/A,,Scattered Clouds,0,2012-12-31 07:21:00
12:46 AM,6.8,3.2,85,30.13,10.0,West,4.6,-,N/A,,Mostly Cloudy,260,2012-12-31 07:46:00
12:55 AM,7.0,5.0,92,30.23,10.0,West,5.8,-,N/A,,Scattered Clouds,280,2012-12-31 07:55:00
1:16 AM,10.4,8.6,92,30.15,10.0,WNW,6.9,-,N/A,,Mostly Cloudy,290,2012-12-31 08:16:00
1:55 AM,14.0,10.9,88,30.24,10.0,West,6.9,-,N/A,,Overcast,270,2012-12-31 08:55:00
2:55 AM,15.1,12.9,91,30.22,10.0,WSW,5.8,-,N/A,,Overcast,250,2012-12-31 09:55:00
3:55 AM,16.0,14.0,92,30.22,10.0,West,6.9,-,N/A,,Overcast,260,2012-12-31 10:55:00
4:43 AM,17.6,14.0,86,30.11,10.0,WNW,3.5,-,N/A,,Overcast,290,2012-12-31 11:43:00
4:55 AM,17.1,15.1,92,30.19,10.0,Calm,Calm,-,N/A,,Overcast,0,2012-12-31 11:55:00
5:55 AM,17.1,15.1,92,30.20,10.0,Calm,Calm,-,N/A,,Overcast,0,2012-12-31 12:55:00
6:55 AM,18.0,15.1,88,30.21,10.0,West,3.5,-,N/A,,Overcast,280,2012-12-31 13:55:00
7:55 AM,19.0,16.0,88,30.23,10.0,Calm,Calm,-,N/A,,Overcast,0,2012-12-31 14:55:00
8:55 AM,19.0,16.0,88,30.23,10.0,WNW,3.5,-,N/A,,Overcast,290,2012-12-31 15:55:00
9:04 AM,19.4,17.6,93,30.13,10.0,WNW,3.5,-,N/A,,Overcast,290,2012-12-31 16:04:00
9:55 AM,21.0,19.0,92,30.24,10.0,Calm,Calm,-,N/A,,Overcast,0,2012-12-31 16:55:00
10:46 AM,21.2,19.4,93,30.13,10.0,Calm,Calm,-,N/A,,Overcast,0,2012-12-31 17:46:00
10:55 AM,21.9,19.9,92,30.22,10.0,Calm,Calm,-,N/A,,Overcast,0,2012-12-31 17:55:00
11:55 AM,25.0,21.0,85,30.19,10.0,WSW,6.9,-,N/A,,Overcast,240,2012-12-31 18:55:00
12:15 PM,24.8,21.2,86,30.09,10.0,SW,6.9,-,N/A,,Overcast,220,2012-12-31 19:15:00
12:35 PM,26.6,21.2,80,30.08,10.0,SW,5.8,-,N/A,,Overcast,230,2012-12-31 19:35:00
12:52 PM,26.6,21.2,80,30.08,10.0,West,6.9,-,N/A,,Overcast,260,2012-12-31 19:52:00
12:55 PM,26.1,21.0,81,30.18,10.0,WSW,5.8,-,N/A,,Overcast,250,2012-12-31 19:55:00
1:06 PM,26.6,21.2,80,30.07,10.0,SW,8.1,-,N/A,,Overcast,230,2012-12-31 20:06:00
1:55 PM,28.0,21.0,75,30.15,10.0,SSW,8.1,-,N/A,,Scattered Clouds,200,2012-12-31 20:55:00
2:16 PM,28.4,21.2,74,30.07,10.0,SSW,9.2,-,N/A,,Mostly Cloudy,200,2012-12-31 21:16:00
2:55 PM,27.0,19.9,75,30.16,10.0,South,10.4,-,N/A,,Mostly Cloudy,190,2012-12-31 21:55:00
3:09 PM,26.6,19.4,74,30.07,10.0,South,9.2,-,N/A,,Scattered Clouds,190,2012-12-31 22:09:00
3:55 PM,25.0,19.0,78,30.16,10.0,SSW,6.9,-,N/A,,Partly Cloudy,200,2012-12-31 22:55:00
4:55 PM,19.9,16.0,85,30.17,10.0,SSW,4.6,-,N/A,,Clear,210,2012-12-31 23:55:00
5:55 PM,19.0,16.0,88,30.17,10.0,Calm,Calm,-,N/A,,Partly Cloudy,0,2013-01-01 00:55:00
6:55 PM,18.0,14.0,84,30.17,10.0,Calm,Calm,-,N/A,,Clear,0,2013-01-01 01:55:00
7:55 PM,12.0,10.0,92,30.17,10.0,NW,3.5,-,N/A,,Clear,310,2013-01-01 02:55:00
8:55 PM,9.0,7.0,92,30.19,10.0,Calm,Calm,-,N/A,,Clear,0,2013-01-01 03:55:00
9:55 PM,7.0,3.9,87,30.20,10.0,Calm,Calm,-,N/A,,Clear,0,2013-01-01 04:55:00
10:55 PM,8.1,5.0,87,30.20,10.0,West,3.5,-,N/A,,Partly Cloudy,280,2013-01-01 05:55:00
11:55 PM,6.1,3.0,87,30.21,10.0,West,4.6,-,N/A,,Clear,280,2013-01-01 06:55:00